GW3092 Weather Reports


time (UTC)temp
C
wind
direction
speed
KPH
gust
KPH
rain 1hr
cm
rain 24hr
cm
rain mn
cm
humidity
%
barometer
mb
20260506204544 13 153 8.0 20.9 0.00 1.57 1.57 91 1012.3
20260506203050 13 170 8.0 17.7 0.00 1.57 1.57 91 1012.2
20260506201600 13 203 9.7 29.0 0.00 1.57 1.57 91 1012.1
20260506200048 13 164 9.7 29.0 0.00 1.57 1.57 91 1012.1
20260506194548 13 185 9.7 22.5 0.00 1.57 1.57 92 1012.0
20260506193050 13 190 6.4 32.2 0.00 1.57 1.57 92 1011.8
20260506191544 13 191 11.3 27.4 0.00 1.57 1.57 92 1011.5
20260506190043 14 157 11.3 33.8 0.00 1.57 1.57 92 1011.2
20260506184549 14 137 11.3 24.1 0.00 1.57 1.57 92 1011.0
20260506183040 14 189 6.4 27.4 0.03 1.57 1.57 92 1011.1
20260506181540 14 183 6.4 24.1 0.05 1.57 1.57 92 1011.2
20260506180045 14 177 8.0 22.5 0.08 1.57 1.57 92 1011.1
20260506174542 14 123 8.0 19.3 0.13 1.57 1.57 92 1011.0
20260506173059 15 210 8.0 22.5 0.10 1.55 1.55 91 1010.8
20260506171551 15 148 9.7 35.4 0.08 1.52 1.52 91 1011.0
20260506170040 15 237 22.5 37.0 0.03 1.47 1.47 89 1010.6
20260506164544 15 155 14.5 32.2 0.00 1.42 1.42 88 1009.7
20260506163059 16 176 8.0 29.0 0.00 1.42 1.42 87 1010.4
20260506161545 16 145 11.3 22.5 0.00 1.42 1.42 87 1010.6
20260506160043 16 236 8.0 22.5 0.00 1.42 1.42 87 1010.6
20260506154550 17 184 12.9 32.2 0.00 1.42 1.42 86 1010.6
20260506153041 16 137 12.9 20.9 0.00 1.42 1.42 89 1010.9
20260506151544 16 214 8.0 22.5 0.00 1.42 1.42 91 1011.1
20260506150044 16 188 6.4 20.9 0.00 1.42 1.42 92 1011.3
20260506144545 16 183 8.0 20.9 0.00 1.50 1.42 92 1011.4
20260506143042 15 214 3.2 14.5 0.00 1.50 1.42 93 1011.4
20260506141542 15 150 8.0 16.1 0.00 1.50 1.42 93 1011.5
20260506140047 15 173 8.0 14.5 0.00 1.50 1.42 93 1011.6
20260506134537 15 135 6.4 14.5 0.00 1.50 1.42 93 1011.8
20260506133045 14 0 6.4 11.3 0.00 1.50 1.42 93 1011.8
20260506131544 14 143 4.8 11.3 0.00 1.50 1.42 93 1012.0
20260506130043 14 167 4.8 12.9 0.03 1.50 1.42 93 1012.2
20260506124542 13 177 3.2 14.5 0.03 1.50 1.42 93 1012.2
20260506123038 13 153 8.0 24.1 0.03 1.50 1.42 93 1012.1
20260506121538 13 236 22.5 40.2 0.00 1.50 1.40 93 1012.3
20260506120050 13 43 8.0 25.7 0.00 1.47 1.40 93 1012.1
20260506114550 13 317 8.0 25.7 0.00 1.50 1.40 93 1012.0
20260506113043 13 191 9.7 22.5 0.00 1.50 1.40 93 1012.1
20260506111543 13 142 6.4 20.9 0.00 1.50 1.40 93 1012.3
20260506110038 13 128 8.0 33.8 0.05 1.50 1.40 93 1012.3
20260506104547 13 131 12.9 35.4 0.13 1.52 1.40 93 1012.3
20260506103044 13 146 9.7 27.4 0.18 1.52 1.40 94 1012.4
20260506101544 13 205 11.3 27.4 0.28 1.52 1.40 94 1012.7
20260506100043 13 131 14.5 25.7 0.30 1.47 1.32 94 1012.7
20260506094546 12 143 9.7 32.2 0.30 1.40 1.24 94 1012.7
20260506093105 12 207 12.9 30.6 0.36 1.32 1.19 94 1012.8
20260506091547 12 206 9.7 24.1 0.36 1.22 1.09 94 1012.6
20260506090051 13 172 14.5 30.6 0.36 1.14 1.02 94 1012.5
20260506084544 13 158 14.5 25.7 0.36 1.04 0.91 94 1012.4
20260506083044 13 150 14.5 22.5 0.36 0.97 0.84 93 1012.6
20260506081540 13 199 4.8 19.3 0.36 0.86 0.74 93 1012.7
20260506073044 13 224 6.4 22.5 0.43 0.58 0.46 93 1012.5
20260506071544 13 192 3.2 19.3 0.36 0.51 0.36 92 1012.4
20260506061552 13 199 9.7 22.5 0.00 0.13 0.00 90 1012.4
20260506044545 13 129 4.8 14.5 0.00 0.13 0.00 90 1012.2
20260506043050 13 128 4.8 12.9 0.00 0.13 0.00 91 1012.2
20260506041554 13 137 8.0 16.1 0.00 0.13 0.00 91 1012.1
20260506040043 13 118 1.6 8.0 0.00 0.13 0.00 91 1012.3
20260506034541 13 135 6.4 14.5 0.00 0.13 0.00 90 1012.3
20260506033050 13 146 6.4 14.5 0.00 0.13 0.00 91 1012.5
20260506031547 13 101 4.8 19.3 0.00 0.13 0.00 91 1012.5
20260506030043 13 145 8.0 19.3 0.00 0.13 0.00 91 1012.8
20260506024543 13 167 9.7 16.1 0.00 0.13 0.00 91 1012.8
20260506023050 13 138 8.0 14.5 0.00 0.13 0.00 92 1013.0
20260506021539 12 167 6.4 12.9 0.00 0.13 0.00 91 1013.2
20260506020108 13 143 4.8 11.3 0.00 0.13 0.00 91 1013.1
20260506014545 13 141 4.8 19.3 0.00 0.13 0.00 91 1013.3
20260506013043 13 138 4.8 11.3 0.00 0.13 0.00 91 1013.3
20260506011548 13 203 8.0 16.1 0.00 0.13 0.00 91 1013.2
20260506010040 13 183 8.0 16.1 0.00 0.13 0.00 91 1013.1
20260506004542 13 143 6.4 19.3 0.00 0.13 0.00 91 1013.0
20260506003038 13 157 11.3 24.1 0.00 0.13 0.00 91 1013.0
20260506001549 13 159 11.3 17.7 0.00 0.13 0.00 91 1013.1
20260506000057 13 158 6.4 19.3 0.00 0.13 0.00 91 1013.2
20260505234544 13 174 4.8 20.9 0.00 0.13 0.00 91 1013.4
20260505233048 13 164 4.8 24.1 0.00 0.13 0.00 91 1013.4
20260505231546 13 202 9.7 24.1 0.00 0.13 0.00 91 1013.6
20260505230049 13 172 8.0 20.9 0.00 0.13 0.00 91 1013.8
20260505224548 12 194 11.3 25.7 0.00 0.13 0.00 91 1013.7
20260505223044 12 197 9.7 22.5 0.00 0.13 0.00 91 1014.0
20260505221550 12 133 8.0 16.1 0.00 0.13 0.00 91 1014.0
20260505214545 12 179 8.0 19.3 0.00 0.13 0.13 92 1014.1
20260505213044 12 177 4.8 17.7 0.00 0.13 0.13 92 1014.3
20260505211609 12 201 4.8 14.5 0.00 0.13 0.13 92 1014.5
20260505210046 12 192 6.4 16.1 0.00 0.13 0.13 92 1014.5